DW9882 Weather Reports


time (UTC)temp
F
wind
direction
speed
knots
gust
knots
rain 1hr
in
rain 24hr
in
rain mn
in
humidity
%
barometer
mb
20260904102204 58 287 0.0 0.0 0.00 0.00 0.00 60 1017.1
20260904101704 59 287 0.0 0.0 0.00 0.00 0.00 60 1017.0
20260904101204 59 287 0.0 0.0 0.00 0.00 0.00 60 1017.0
20260904100204 59 287 0.0 0.0 0.00 0.00 0.00 59 1017.1
20260904095704 60 287 0.0 0.0 0.00 0.00 0.00 59 1017.1
20260904095204 60 287 0.0 0.0 0.00 0.00 0.00 58 1017.0
20260904094705 60 287 0.0 0.0 0.00 0.00 0.00 58 1016.9
20260904094204 60 287 0.0 0.9 0.00 0.00 0.00 57 1016.8
20260904093705 60 287 0.0 0.0 0.00 0.00 0.00 56 1016.8
20260904093204 61 287 0.0 0.0 0.00 0.00 0.00 56 1016.8
20260904092704 61 287 0.0 0.0 0.00 0.00 0.00 56 1016.8
20260904092204 61 287 0.0 0.9 0.00 0.00 0.00 57 1016.7
20260904091704 61 287 0.0 1.7 0.00 0.00 0.00 56 1016.6
20260904090705 61 287 0.0 0.0 0.00 0.00 0.00 54 1016.5
20260904090204 61 287 0.0 0.9 0.00 0.00 0.00 53 1016.6
20260904085704 61 287 0.0 1.7 0.00 0.00 0.00 53 1016.6
20260904085205 61 287 0.0 0.9 0.00 0.00 0.00 54 1016.6
20260904084704 62 287 0.0 0.0 0.00 0.00 0.00 53 1016.6
20260904084205 62 287 0.9 1.7 0.00 0.00 0.00 54 1016.6
20260904083704 62 287 0.0 0.0 0.00 0.00 0.00 53 1016.5
20260904083204 62 287 0.0 0.0 0.00 0.00 0.00 53 1016.5
20260904082705 63 287 0.0 0.0 0.00 0.00 0.00 52 1016.5
20260904082205 63 287 0.0 0.0 0.00 0.00 0.00 52 1016.4
20260904081204 63 287 0.0 0.0 0.00 0.00 0.00 50 1016.4
20260904080704 64 287 0.0 0.0 0.00 0.00 0.00 50 1016.4
20260904075704 64 287 0.0 0.0 0.00 0.00 0.00 48 1016.3
20260904075204 64 287 0.0 0.0 0.00 0.00 0.00 47 1016.2
20260904074703 65 287 0.0 0.0 0.00 0.00 0.00 47 1016.2
20260904074204 65 287 0.0 0.0 0.00 0.00 0.00 47 1016.3
20260904073704 65 287 0.0 0.0 0.00 0.00 0.00 47 1016.3
20260904073204 65 287 0.0 0.0 0.00 0.00 0.00 47 1016.3
20260904072704 65 287 0.0 0.9 0.00 0.00 0.00 47 1016.4
20260904072204 65 287 0.0 0.9 0.00 0.00 0.00 47 1016.4
20260904071704 65 287 0.0 0.9 0.00 0.00 0.00 46 1016.4
20260904071204 65 287 0.0 0.9 0.00 0.00 0.00 46 1016.4
20260904070704 66 287 0.0 1.7 0.00 0.00 0.00 45 1016.5
20260904070204 66 287 0.0 0.0 0.00 0.00 0.00 46 1016.5
20260904065704 66 287 0.0 0.9 0.00 0.00 0.00 46 1016.5
20260904065204 66 287 0.9 1.7 0.00 0.00 0.00 46 1016.5
20260904064704 66 287 0.9 2.6 0.00 0.00 0.00 45 1016.6
20260904064204 67 186 0.0 0.9 0.00 0.00 0.00 45 1016.6
20260904063704 67 186 0.0 0.0 0.00 0.00 0.00 45 1016.6
20260904063205 67 186 0.0 0.0 0.00 0.00 0.00 44 1016.7
20260904062204 68 186 0.0 0.0 0.00 0.00 0.00 43 1016.7
20260904061704 68 186 0.0 0.0 0.00 0.00 0.00 43 1016.8
20260904060705 69 186 0.0 0.9 0.00 0.00 0.00 42 1016.8
20260904060204 69 186 0.0 0.0 0.00 0.00 0.00 41 1016.8
20260904055704 69 186 0.0 0.0 0.00 0.00 0.00 41 1016.8
20260904055204 69 186 0.0 0.0 0.00 0.00 0.00 41 1016.8
20260904054704 69 186 0.0 0.9 0.00 0.00 0.00 41 1016.8
20260904054204 69 186 0.0 0.9 0.00 0.00 0.00 41 1016.8
20260904053705 69 186 0.0 2.6 0.00 0.00 0.00 41 1016.9
20260904053204 68 178 0.9 7.0 0.00 0.00 0.00 42 1016.9
20260904052204 68 173 0.0 0.9 0.00 0.00 0.00 42 1016.5
20260904051703 68 173 0.0 1.7 0.00 0.00 0.00 43 1016.4
20260904051203 69 173 0.0 0.9 0.00 0.00 0.00 42 1016.4
20260904050704 69 173 0.0 0.9 0.00 0.00 0.00 42 1016.4
20260904050204 69 173 0.9 2.6 0.00 0.00 0.00 42 1016.3
20260904045704 69 331 0.0 0.9 0.00 0.00 0.00 43 1016.4
20260904045204 70 331 0.0 0.9 0.00 0.00 0.00 42 1016.3
20260904044704 70 331 0.0 0.9 0.00 0.00 0.00 42 1016.3
20260904044204 71 331 0.0 0.9 0.00 0.00 0.00 41 1016.3
20260904043704 71 331 0.0 0.0 0.00 0.00 0.00 41 1016.4
20260904043203 71 331 0.0 0.0 0.00 0.00 0.00 41 1016.4
20260904042703 72 331 0.0 0.0 0.00 0.00 0.00 39 1016.4
20260904042204 72 331 0.0 0.0 0.00 0.00 0.00 39 1016.4
20260904041704 72 331 0.0 0.9 0.00 0.00 0.00 38 1016.4
20260904041204 73 331 0.0 0.9 0.00 0.00 0.00 38 1016.3
20260904040204 73 331 0.0 0.0 0.00 0.00 0.00 37 1016.3
20260904035703 74 331 0.0 0.0 0.00 0.00 0.00 36 1016.3
20260904035203 74 331 0.0 1.7 0.00 0.00 0.00 36 1016.2
20260904034704 74 331 0.0 0.9 0.00 0.00 0.00 36 1016.3
20260904034204 75 331 0.0 0.9 0.00 0.00 0.00 35 1016.3
20260904033203 75 331 0.0 0.9 0.00 0.00 0.00 34 1016.0
20260904032705 75 331 0.0 2.6 0.00 0.00 0.00 34 1016.0
20260904032203 75 236 0.9 2.6 0.00 0.00 0.00 35 1016.0
20260904031704 76 294 0.0 1.7 0.00 0.00 0.00 35 1015.9
20260904030204 76 305 0.0 1.7 0.00 0.00 0.00 34 1015.9
20260904025204 77 224 0.0 4.3 0.00 0.00 0.00 32 1015.7
20260904024704 77 252 0.0 2.6 0.00 0.00 0.00 32 1015.7
20260904024205 77 264 0.9 2.6 0.00 0.00 0.00 32 1015.6
20260904023704 77 267 0.0 1.7 0.00 0.05 0.00 31 1015.6
20260904023204 78 267 0.0 2.6 0.00 0.08 0.00 30 1015.6
20260904022704 78 244 0.0 2.6 0.00 0.08 0.00 30 1015.5
20260904022204 78 349 0.0 2.6 0.00 0.08 0.00 30 1015.4
20260904021705 79 291 0.9 2.6 0.00 0.08 0.00 29 1015.3
20260904020706 80 261 1.7 5.2 0.00 0.08 0.00 28 1015.2
20260904020207 80 262 0.0 1.7 0.00 0.08 0.00 27 1015.1
20260904015705 81 262 0.9 1.7 0.00 0.08 0.00 27 1015.1
20260904015206 82 335 0.0 0.9 0.00 0.08 0.00 27 1015.1
20260904014705 82 335 0.0 0.9 0.00 0.08 0.00 26 1015.1
20260904014206 83 22 0.0 2.6 0.00 0.08 0.00 26 1015.1
20260904013705 83 355 1.7 7.0 0.00 0.08 0.00 24 1015.0
20260904013206 83 5 1.7 6.1 0.00 0.08 0.00 24 1015.0
20260904012205 84 22 1.7 4.3 0.00 0.08 0.00 23 1015.1
20260904011705 84 56 0.9 2.6 0.00 0.08 0.00 23 1015.0
20260904005205 86 10 2.6 8.7 0.00 0.08 0.00 21 1015.0
20260904004705 86 32 2.6 7.0 0.00 0.08 0.00 21 1015.0
20260904003705 87 62 3.5 7.8 0.00 0.08 0.00 21 1015.0
20260904003205 88 56 4.3 7.8 0.00 0.08 0.00 21 1015.0
20260904002706 88 59 2.6 7.8 0.00 0.08 0.00 21 1015.0
20260904002206 89 14 2.6 8.7 0.00 0.08 0.00 20 1015.0
20260904001206 90 55 2.6 7.0 0.00 0.08 0.00 19 1015.0
20260904000205 91 14 0.9 2.6 0.00 0.08 0.00 20 1014.8
20260903235705 91 130 0.9 2.6 0.00 0.08 0.00 20 1014.9
20260903235205 91 115 0.9 6.1 0.00 0.08 0.00 20 1014.9
20260903234706 91 106 0.0 5.2 0.00 0.08 0.00 22 1014.9
20260903234205 91 136 0.9 2.6 0.00 0.08 0.00 19 1014.9
20260903233705 91 26 0.9 2.6 0.00 0.08 0.00 22 1014.9
20260903233205 91 136 0.0 2.6 0.00 0.08 0.00 20 1014.9
20260903232706 91 131 0.9 2.6 0.00 0.08 0.00 19 1014.9
20260903232205 91 71 1.7 5.2 0.00 0.08 0.00 20 1014.9
20260903231705 91 23 2.6 7.0 0.00 0.08 0.00 18 1014.9
20260903231205 92 43 1.7 2.6 0.00 0.08 0.00 18 1014.9
20260903230705 92 41 0.9 4.3 0.00 0.08 0.00 18 1014.9
20260903225706 91 92 0.9 2.6 0.00 0.08 0.00 18 1014.9
20260903225205 91 60 2.6 6.1 0.00 0.08 0.00 18 1014.9
20260903224705 91 72 0.9 7.8 0.00 0.08 0.00 20 1014.9
20260903223705 91 135 0.9 2.6 0.00 0.08 0.00 21 1015.0
20260903223205 91 46 1.7 7.0 0.00 0.08 0.00 20 1015.0
20260903222705 91 112 1.7 4.3 0.00 0.08 0.00 19 1015.1
20260903221206 91 9 0.9 4.3 0.00 0.08 0.00 21 1015.2
20260903220706 91 39 1.7 7.0 0.00 0.08 0.00 19 1015.3
20260903220206 91 61 0.9 2.6 0.00 0.08 0.00 18 1015.3
20260903215705 91 89 0.9 4.3 0.00 0.08 0.00 20 1015.4
20260903214705 91 42 2.6 7.0 0.00 0.08 0.00 19 1015.4
20260903214205 91 38 1.7 6.1 0.00 0.08 0.00 19 1015.5
20260903213706 91 65 1.7 4.3 0.00 0.08 0.00 19 1015.6
20260903212706 91 67 1.7 7.8 0.00 0.08 0.00 20 1015.6
20260903211705 91 147 1.7 4.3 0.00 0.08 0.00 21 1015.7
20260903210706 90 51 1.7 7.8 0.00 0.08 0.00 19 1015.8
20260903210205 91 107 1.7 5.2 0.00 0.08 0.00 21 1015.9
20260903204205 90 28 1.7 5.2 0.00 0.08 0.00 20 1016.1
20260903203705 90 118 1.7 10.4 0.00 0.08 0.00 21 1016.2
20260903203205 90 97 0.0 2.6 0.00 0.08 0.00 25 1016.3
20260903202205 89 78 1.7 4.3 0.00 0.08 0.00 22 1016.4
20260903201205 89 38 1.7 6.1 0.00 0.08 0.00 24 1016.4
20260903200705 89 5 2.6 7.8 0.00 0.08 0.00 23 1016.4
20260903200205 88 61 1.7 4.3 0.00 0.08 0.00 23 1016.4
20260903195705 88 86 1.7 5.2 0.00 0.08 0.00 23 1016.5
20260903195205 88 117 2.6 7.8 0.00 0.08 0.00 22 1016.5
20260903194705 88 53 2.6 8.7 0.00 0.08 0.00 22 1016.6
20260903194206 88 42 1.7 5.2 0.00 0.08 0.00 22 1016.6
20260903193705 88 106 1.7 6.1 0.00 0.08 0.00 24 1016.6
20260903193205 88 36 2.6 5.2 0.00 0.08 0.00 22 1016.7
20260903192705 88 118 0.9 2.6 0.00 0.08 0.00 23 1016.8
20260903192205 88 72 0.0 2.6 0.00 0.08 0.00 24 1016.9
20260903191706 87 76 0.9 2.6 0.00 0.08 0.00 23 1017.0
20260903191205 87 77 0.9 6.1 0.00 0.08 0.00 23 1017.1
20260903190705 87 49 1.7 7.8 0.00 0.08 0.00 23 1017.1
20260903185705 88 103 1.7 2.6 0.00 0.08 0.00 23 1017.2
20260903184705 87 157 0.0 2.6 0.00 0.08 0.00 26 1017.3
20260903184205 87 126 0.0 2.6 0.00 0.08 0.00 24 1017.4
20260903183705 87 102 1.7 5.2 0.00 0.08 0.00 24 1017.5
20260903183205 87 151 2.6 5.2 0.00 0.08 0.00 24 1017.6
20260903182205 86 168 1.7 6.1 0.00 0.08 0.00 26 1017.7
20260903181704 86 124 0.9 4.3 0.00 0.08 0.00 26 1017.8
20260903180705 85 341 0.9 2.6 0.00 0.08 0.00 26 1017.8
20260903180205 85 79 0.9 7.0 0.00 0.08 0.00 25 1017.9
20260903175705 85 150 0.0 2.6 0.00 0.08 0.00 27 1018.0
20260903175205 85 102 1.7 5.2 0.00 0.08 0.00 25 1018.0
20260903174205 85 120 1.7 4.3 0.00 0.08 0.00 26 1018.1
20260903173705 85 113 0.9 2.6 0.00 0.08 0.00 25 1018.1
20260903173205 84 168 0.9 5.2 0.00 0.08 0.00 27 1018.1
20260903172705 84 96 0.9 2.6 0.00 0.08 0.00 28 1018.2
20260903171705 83 121 0.9 2.6 0.00 0.08 0.00 30 1018.3
20260903171204 83 101 1.7 4.3 0.00 0.08 0.00 28 1018.3
20260903170205 82 137 0.9 2.6 0.00 0.08 0.00 32 1018.3
20260903165705 81 175 0.9 4.3 0.00 0.08 0.00 34 1018.4
20260903165205 81 125 0.9 1.7 0.00 0.08 0.00 35 1018.4
20260903164705 80 85 0.9 2.6 0.00 0.08 0.00 35 1018.4
20260903163705 79 96 0.9 2.6 0.00 0.08 0.00 34 1018.4
20260903163205 79 111 0.9 2.6 0.00 0.08 0.00 38 1018.4
20260903162705 78 77 0.0 0.9 0.00 0.08 0.00 38 1018.4
20260903162204 77 77 0.9 1.7 0.00 0.08 0.00 38 1018.5
20260903161704 77 75 0.0 2.6 0.00 0.08 0.00 39 1018.5
20260903161205 76 143 0.0 1.7 0.00 0.08 0.00 43 1018.5
20260903160705 75 55 0.9 1.7 0.00 0.08 0.00 41 1018.4
20260903160205 74 45 0.9 2.6 0.00 0.08 0.00 41 1018.5
20260903155704 73 78 0.0 1.7 0.00 0.08 0.00 44 1018.5
20260903155205 72 78 0.0 1.7 0.00 0.08 0.00 45 1018.5
20260903154204 70 174 0.0 0.0 0.00 0.08 0.00 51 1018.5
20260903153705 69 174 0.0 0.0 0.00 0.08 0.00 53 1018.5
20260903152705 68 174 0.0 1.7 0.00 0.08 0.00 60 1018.6
20260903152205 68 174 0.0 1.7 0.00 0.08 0.00 62 1018.5
20260903151704 67 174 0.9 1.7 0.00 0.08 0.00 64 1018.6
20260903151205 66 174 0.0 0.9 0.00 0.08 0.00 67 1018.6
20260903150704 65 174 0.0 0.9 0.00 0.08 0.00 65 1018.6
20260903150205 64 174 0.0 0.0 0.00 0.08 0.00 65 1018.7
20260903145705 64 174 0.0 0.9 0.00 0.08 0.00 68 1018.7
20260903145205 63 174 0.0 0.0 0.00 0.08 0.00 69 1018.8
20260903144705 62 174 0.0 0.0 0.00 0.08 0.00 69 1018.8
20260903143704 61 174 0.0 0.0 0.00 0.08 0.00 75 1018.8
20260903143205 60 174 0.0 0.0 0.00 0.08 0.00 77 1018.8
20260903142705 60 174 0.0 0.9 0.00 0.08 0.00 77 1018.8
20260903142205 59 174 0.0 1.7 0.00 0.08 0.00 81 1018.9
20260903141705 58 174 0.0 1.7 0.00 0.08 0.00 85 1018.9
20260903141204 57 174 0.0 0.9 0.00 0.08 0.00 87 1018.8
20260903140204 55 174 0.0 0.9 0.00 0.08 0.00 89 1018.7
20260903135705 55 174 0.0 0.9 0.00 0.08 0.00 90 1018.7
20260903135205 55 174 0.0 1.7 0.00 0.08 0.00 90 1018.7
20260903134205 54 174 0.0 0.0 0.00 0.08 0.00 90 1018.8
20260903133705 54 174 0.0 0.0 0.00 0.08 0.00 90 1018.7
20260903133205 53 174 0.0 0.0 0.00 0.08 0.00 90 1018.5
20260903132204 53 174 0.0 0.9 0.00 0.08 0.00 90 1018.4
20260903131705 53 174 0.9 1.7 0.00 0.08 0.00 90 1018.5
20260903131205 53 174 0.0 0.9 0.00 0.08 0.00 90 1018.5
20260903130204 53 174 0.0 0.9 0.00 0.08 0.00 90 1018.4
20260903125704 53 174 0.0 0.9 0.00 0.08 0.00 90 1018.4
20260903125204 53 174 0.0 0.0 0.00 0.08 0.00 90 1018.3
20260903124705 53 174 0.0 0.0 0.00 0.08 0.00 90 1018.2
20260903124205 53 174 0.0 0.0 0.00 0.08 0.00 90 1018.1
20260903123704 53 174 0.0 0.0 0.00 0.08 0.00 90 1018.1
20260903123205 53 174 0.0 0.0 0.00 0.08 0.00 90 1018.1
20260903122704 53 174 0.0 0.9 0.00 0.08 0.00 90 1018.0
20260903122205 53 174 0.0 0.0 0.00 0.08 0.00 90 1018.0
20260903121204 53 174 0.0 0.0 0.00 0.08 0.00 90 1018.0
20260903120705 53 174 0.0 0.0 0.00 0.08 0.00 90 1018.0
20260903115704 53 174 0.0 0.9 0.00 0.08 0.00 90 1017.9
20260903115205 53 174 0.0 0.9 0.00 0.08 0.00 90 1017.8
20260903114704 53 174 0.0 0.0 0.00 0.08 0.00 90 1017.8
20260903114205 53 174 0.0 0.0 0.00 0.08 0.00 90 1017.8
20260903113704 53 174 0.0 0.0 0.00 0.08 0.00 90 1017.8
20260903113204 53 174 0.0 0.9 0.00 0.08 0.00 90 1017.7
20260903112705 53 174 0.0 0.9 0.00 0.08 0.00 90 1017.6
20260903111704 54 174 0.0 0.0 0.00 0.08 0.00 90 1017.7
20260903111204 54 174 0.0 0.9 0.00 0.08 0.00 89 1017.7
20260903110704 54 174 0.0 0.0 0.00 0.08 0.00 89 1017.8
20260903110204 54 174 0.0 0.0 0.00 0.08 0.00 89 1017.7
20260903105704 54 174 0.0 0.0 0.00 0.08 0.00 89 1017.8
20260903104705 55 174 0.0 0.0 0.00 0.08 0.00 89 1017.7
20260903104205 55 174 0.0 0.0 0.00 0.08 0.00 89 1017.7
20260903103704 55 174 0.0 0.0 0.00 0.08 0.00 90 1017.7
20260903103205 55 174 0.0 0.0 0.00 0.08 0.00 90 1017.8
20260903102704 55 174 0.0 0.0 0.00 0.08 0.00 89 1017.8